Starlink 30864

operational
NORAD ID: 58243 Int'l Des: 2023-171 Owner: SPXS Country: US Constellation: starlink
LEOCIRCULAR

About Starlink 30864

Description loading...

Live Position

Loading 3D Globe...

Upcoming Passes

Altitude History

Altitude vs Time

uPlot chart will show altitude changes over time

Two-Line Element Set

1 58243U 23171P 25305.61187304 .00000854 00000-0 78299-4 0 9997
2 58243 43.0029 261.5600 0001001 276.4798 83.5930 15.02536797110361
Epoch: Nov 1, 2025 • Age: 12 hours

Current Status

Altitude 569.1 km
Velocity 7.58 km/s
Sub-Earth Point -36.63°S, 116.94°E
Launch Date Nov 8, 2023
Age 1.9 years
Type internet

Technical Details

Classification Payload
Mass 730.00 kg
Dry Mass 700.00 kg
Total Mass 730.00 kg
Length 0.30 m
Diameter 4.10 m
Span 29.00 m
Shape Box + pan
Manufacturer SPXS
Bus Type Starlink V2M
Phase Status In Orbit
Owner/State SPXS/US

Large Constellations

Loading constellations...